timestamp,surface_pressure_avg,surface_temp_avg,battery_voltage,lat,long
2023-12-05 00:09:01+00:00,246.6397,6.31,11.77,47.84626,-54.09684
2023-12-05 00:19:00+00:00,253.9764,6.65,11.77,47.84626,-54.09684
2023-12-05 00:29:00+00:00,259.6514,6.7,11.77,47.84626,-54.09684
2023-12-05 00:39:00+00:00,255.953,6.7,11.77,47.84626,-54.09684
2023-12-05 00:49:00+00:00,254.8497,6.69,11.77,47.84626,-54.09684
2023-12-05 00:59:00+00:00,256.6897,6.7,11.77,47.84626,-54.09684
2023-12-05 01:09:00+00:00,261.0097,6.7,11.77,47.84626,-54.09684
2023-12-05 01:19:01+00:00,267.9514,6.7,11.77,47.84626,-54.09684
2023-12-05 01:29:01+00:00,279.168,6.41,11.77,47.84626,-54.09684
2023-12-05 01:39:01+00:00,283.403,6.22,11.77,47.84626,-54.09684
2023-12-05 01:49:01+00:00,283.9464,6.17,11.77,47.84626,-54.09684
2023-12-05 01:59:01+00:00,279.923,6.55,11.77,47.84626,-54.09684
2023-12-05 02:09:01+00:00,281.4664,6.24,11.77,47.84626,-54.09684
2023-12-05 02:19:00+00:00,282.8047,5.99,11.77,47.84626,-54.09684
2023-12-05 02:29:00+00:00,291.5564,5.5,11.77,47.84626,-54.09684
2023-12-05 02:39:00+00:00,296.7847,5.49,11.77,47.84626,-54.09684
2023-12-05 02:49:00+00:00,302.4747,6.19,11.77,47.84626,-54.09684
2023-12-05 02:59:00+00:00,307.4597,6.2,11.77,47.84626,-54.09684
2023-12-05 03:09:00+00:00,310.4813,6.2,11.77,47.84626,-54.09684
2023-12-05 03:19:00+00:00,312.1281,6.27,11.77,47.84626,-54.09684
2023-12-05 03:29:00+00:00,316.95799999999997,6.35,11.77,47.84626,-54.09684
2023-12-05 03:39:00+00:00,321.1096,6.38,11.77,47.84626,-54.09684
2023-12-05 03:49:00+00:00,319.7163,6.4,11.77,47.84626,-54.09684
2023-12-05 03:59:00+00:00,318.0597,6.4,11.77,47.84626,-54.09684
2023-12-05 04:09:00+00:00,317.1329,6.4,11.77,47.84626,-54.09684
2023-12-05 04:19:00+00:00,314.9696,6.4,11.77,47.84626,-54.09684
2023-12-05 04:29:00+00:00,317.7695,6.4,11.77,47.84626,-54.09684
2023-12-05 04:39:00+00:00,323.3047,6.4,11.77,47.84626,-54.09684
2023-12-05 04:49:00+00:00,321.1529,6.4,11.77,47.84626,-54.09684
2023-12-05 04:59:00+00:00,321.3097,6.4,11.77,47.84626,-54.09684
2023-12-05 05:09:00+00:00,323.533,6.4,11.77,47.84626,-54.09684
2023-12-05 05:19:00+00:00,326.4529,6.44,11.77,47.84626,-54.09684
2023-12-05 05:29:00+00:00,321.5913,6.49,11.77,47.84626,-54.09684
2023-12-05 05:39:00+00:00,320.5464,6.5,11.77,47.84626,-54.09684
2023-12-05 05:49:00+00:00,328.30800000000005,6.5,11.77,47.84626,-54.09684
2023-12-05 05:59:00+00:00,328.0313,6.49,11.77,47.84626,-54.09684
2023-12-05 06:09:00+00:00,321.183,6.47,11.77,47.84626,-54.09684
2023-12-05 06:19:00+00:00,319.353,6.47,11.77,47.84626,-54.09684
2023-12-05 06:29:00+00:00,323.58299999999997,6.46,11.77,47.84626,-54.09684
2023-12-05 06:39:00+00:00,326.0963,6.4,11.77,47.84626,-54.09684
2023-12-05 06:49:00+00:00,317.988,6.39,11.77,47.84626,-54.09684
2023-12-05 06:59:00+00:00,317.7814,6.6,11.77,47.84626,-54.09684
2023-12-05 07:09:00+00:00,318.4214,6.6,11.77,47.84626,-54.09684
2023-12-05 07:19:00+00:00,310.353,6.3,11.77,47.84626,-54.09684
2023-12-05 07:29:00+00:00,302.5246,6.1,11.77,47.84626,-54.09684
2023-12-05 07:39:00+00:00,302.3914,6.1,11.77,47.84626,-54.09684
2023-12-05 07:49:00+00:00,300.158,6.1,11.77,47.84626,-54.09684
2023-12-05 07:59:00+00:00,292.8047,6.1,11.77,47.84626,-54.09684
2023-12-05 08:09:00+00:00,287.9681,6.1,11.77,47.84626,-54.09684
2023-12-05 08:19:00+00:00,287.2598,6.1,11.77,47.84626,-54.09684
2023-12-05 08:29:00+00:00,280.7864,6.18,11.77,47.84626,-54.09684
2023-12-05 08:39:00+00:00,274.618,6.2,11.77,47.84626,-54.09684
2023-12-05 08:49:00+00:00,271.8148,6.16,11.77,47.84626,-54.09684
2023-12-05 08:59:00+00:00,266.1397,6.16,11.77,47.84626,-54.09684
2023-12-05 09:09:00+00:00,258.0547,6.13,11.77,47.84626,-54.09684
2023-12-05 09:19:01+00:00,258.5764,6.19,11.77,47.84626,-54.09684
2023-12-05 09:29:01+00:00,259.1247,6.2,11.77,47.84626,-54.09684
2023-12-05 09:39:01+00:00,252.1048,6.1,11.77,47.84626,-54.09684
2023-12-05 09:49:01+00:00,246.8947,6.1,11.77,47.84626,-54.09684
2023-12-05 09:59:01+00:00,251.3498,6.07,11.77,47.84626,-54.09684
2023-12-05 10:09:01+00:00,250.1497,6.0,11.77,47.84626,-54.09684
2023-12-05 10:19:00+00:00,244.9131,6.0,11.77,47.84626,-54.09684
2023-12-05 10:29:00+00:00,248.1797,6.0,11.77,47.84626,-54.09684
2023-12-05 10:39:00+00:00,250.6198,6.0,11.77,47.84626,-54.09684
2023-12-05 10:49:00+00:00,246.3064,6.04,11.77,47.84626,-54.09684
2023-12-05 10:59:00+00:00,239.0399,6.08,11.77,47.84626,-54.09684
2023-12-05 11:09:00+00:00,241.2164,6.1,11.77,47.84626,-54.09684
2023-12-05 11:19:00+00:00,245.5547,6.29,11.77,47.84626,-54.09684
2023-12-05 11:29:00+00:00,243.1564,6.4,11.77,47.84626,-54.09684
2023-12-05 11:39:00+00:00,242.8881,6.3,11.77,47.84626,-54.09684
2023-12-05 11:49:00+00:00,250.3831,6.55,11.77,47.84626,-54.09684
2023-12-05 11:59:00+00:00,260.2365,6.7,11.77,47.84626,-54.09684
2023-12-05 12:09:00+00:00,261.6097,6.7,11.77,47.84626,-54.09684
2023-12-05 12:19:01+00:00,264.2631,6.5,12.01,47.84626,-54.09684
2023-12-05 12:29:01+00:00,268.078,6.59,12.01,47.84626,-54.09684
2023-12-05 12:39:01+00:00,269.4331,6.61,12.01,47.84626,-54.09684
2023-12-05 12:49:01+00:00,265.8347,6.5,12.01,47.84626,-54.09684
2023-12-05 12:59:01+00:00,269.1447,6.5,12.01,47.84626,-54.09684
2023-12-05 13:09:01+00:00,271.7947,6.6,12.01,47.84626,-54.09684
2023-12-05 13:19:01+00:00,271.6381,6.69,11.93,47.84626,-54.09684
2023-12-05 13:29:01+00:00,269.9848,6.65,11.93,47.84626,-54.09684
2023-12-05 13:39:01+00:00,274.1164,6.6,11.93,47.84626,-54.09684
2023-12-05 13:49:01+00:00,279.3864,6.65,11.93,47.84626,-54.09684
2023-12-05 13:59:01+00:00,285.298,6.7,11.93,47.84626,-54.09684
2023-12-05 14:09:01+00:00,288.1597,6.7,11.93,47.84626,-54.09684
2023-12-05 14:19:01+00:00,294.2479,6.7,12.09,47.84626,-54.09684
2023-12-05 14:29:01+00:00,292.5665,6.7,12.09,47.84626,-54.09684
2023-12-05 14:39:01+00:00,295.4113,6.7,12.09,47.84626,-54.09684
2023-12-05 14:49:01+00:00,301.7713,6.7,12.09,47.84626,-54.09684
2023-12-05 14:59:01+00:00,304.3296,6.7,12.09,47.84626,-54.09684
2023-12-05 15:09:01+00:00,298.33299999999997,6.66,12.09,47.84626,-54.09684
2023-12-05 15:19:00+00:00,305.9647,6.65,12.17,47.84626,-54.09684
2023-12-05 15:29:00+00:00,316.8146,6.53,12.17,47.84626,-54.09684
2023-12-05 15:39:00+00:00,317.968,6.4,12.17,47.84626,-54.09684
2023-12-05 15:49:00+00:00,311.453,6.55,12.17,47.84626,-54.09684
2023-12-05 15:59:00+00:00,314.6464,6.65,12.17,47.84626,-54.09684
2023-12-05 16:09:00+00:00,324.6213,6.7,12.17,47.84626,-54.09684
2023-12-05 16:19:00+00:00,323.1247,6.7,12.01,47.84626,-54.09684
2023-12-05 16:29:00+00:00,318.6697,6.7,12.01,47.84626,-54.09684
2023-12-05 16:39:00+00:00,323.8297,6.7,12.01,47.84626,-54.09684
2023-12-05 16:49:00+00:00,330.2897,6.7,12.01,47.84626,-54.09684
2023-12-05 16:59:00+00:00,327.613,6.7,12.01,47.84626,-54.09684
2023-12-05 17:09:00+00:00,324.2896,6.72,12.01,47.84626,-54.09684
2023-12-05 17:19:00+00:00,326.738,6.75,11.93,47.84626,-54.09684
2023-12-05 17:29:00+00:00,331.61300000000006,6.76,11.93,47.84626,-54.09684
2023-12-05 17:39:00+00:00,332.7197,6.77,11.93,47.84626,-54.09684
2023-12-05 17:49:00+00:00,333.2613,6.74,11.93,47.84626,-54.09684
2023-12-05 17:59:00+00:00,333.5379,6.72,11.93,47.84626,-54.09684
2023-12-05 18:09:00+00:00,342.973,6.7,11.93,47.84626,-54.09684
2023-12-05 18:19:00+00:00,343.8347,6.7,11.93,47.84626,-54.09684
2023-12-05 18:29:00+00:00,339.6396,6.7,11.93,47.84626,-54.09684
2023-12-05 18:39:00+00:00,339.0130000000001,6.7,11.93,47.84626,-54.09684
2023-12-05 18:49:00+00:00,341.0681,6.7,11.93,47.84626,-54.09684
2023-12-05 18:59:00+00:00,335.9713,6.7,11.93,47.84626,-54.09684
2023-12-05 19:09:00+00:00,330.343,6.7,11.93,47.84626,-54.09684
2023-12-05 19:19:00+00:00,328.4163,6.7,11.86,47.84626,-54.09684
2023-12-05 19:29:00+00:00,326.9113,6.7,11.86,47.84626,-54.09684
2023-12-05 19:39:00+00:00,318.7563,6.7,11.86,47.84626,-54.09684
2023-12-05 19:49:00+00:00,315.2413,6.7,11.86,47.84626,-54.09684
2023-12-05 19:59:00+00:00,309.238,6.7,11.86,47.84626,-54.09684
2023-12-05 20:09:00+00:00,307.1447,6.7,11.86,47.84626,-54.09684
2023-12-05 20:19:00+00:00,306.3063,6.7,11.86,47.84626,-54.09684
2023-12-05 20:29:00+00:00,300.8997,6.7,11.86,47.84626,-54.09684
2023-12-05 20:39:00+00:00,290.3764,6.7,11.86,47.84626,-54.09684
2023-12-05 20:49:00+00:00,286.328,6.7,11.86,47.84626,-54.09684
2023-12-05 20:59:00+00:00,287.813,6.74,11.86,47.84626,-54.09684
2023-12-05 21:09:00+00:00,282.6214,6.8,11.86,47.84626,-54.09684
2023-12-05 21:19:00+00:00,270.9614,6.7,11.77,47.84626,-54.09684
2023-12-05 21:29:00+00:00,268.4964,6.4,11.77,47.84626,-54.09684
2023-12-05 21:39:00+00:00,270.3797,6.49,11.77,47.84626,-54.09684
2023-12-05 21:49:00+00:00,267.2464,6.5,11.77,47.84626,-54.09684
2023-12-05 21:59:00+00:00,263.3497,6.6,11.77,47.84626,-54.09684
2023-12-05 22:09:00+00:00,263.138,6.64,11.77,47.84626,-54.09684
2023-12-05 22:19:00+00:00,260.9147,6.69,11.77,47.84626,-54.09684
2023-12-05 22:29:00+00:00,259.2998,6.69,11.77,47.84626,-54.09684
2023-12-05 22:39:00+00:00,257.8181,6.7,11.77,47.84626,-54.09684
2023-12-05 22:49:00+00:00,254.3864,6.7,11.77,47.84626,-54.09684
2023-12-05 22:59:00+00:00,253.0948,6.7,11.77,47.84626,-54.09684
2023-12-05 23:09:00+00:00,254.9981,6.7,11.77,47.84626,-54.09684
2023-12-05 23:19:00+00:00,255.0131,6.7,11.77,47.84626,-54.09684
2023-12-05 23:29:00+00:00,251.7014,6.7,11.77,47.84626,-54.09684
2023-12-05 23:39:00+00:00,251.1864,6.7,11.77,47.84626,-54.09684
2023-12-05 23:49:00+00:00,252.3098,6.7,11.77,47.84626,-54.09684
2023-12-05 23:59:00+00:00,248.9498,6.7,11.77,47.84626,-54.09684
